Location: Bodest
(46.3000°N, 22.5667°E)
Time: 17:56:22
(UTC+00:00)

Cosmos 1844 Rocket - Pass Details

Date: 31 May 2022
Orbit: 826 x 843 km, 71.0° (Epoch: 01 July)

Event Time Altitude Azimuth Distance (km) Brightness Sun altitude
Rises 20:53:30 0° 327° (NNW) 3,379 7.4 -18.5°
Reaches altitude 10° 20:56:03 10° 321° (NW) 2,440 6.2 -18.6°
Maximum altitude 21:01:14 41° 253° (WSW) 1,192 3.5 -19.0°
Enters shadow 21:03:50 25° 201° (SSW) 1,598 3.7 -19.1°
